CW6955 Weather Reports


Display with metric or nautical units.
time (UTC)temp
F
wind
direction
speed
MPH
gust
MPH
rain 1hr
in
rain 24hr
in
rain mn
in
humidity
%
barometer
mb
20260905191820 65 0 0.0 0.0 0.00 0.00 0.00 58 1019.3
20260905191619 65 0 0.0 0.0 0.00 0.00 0.00 58 1019.3
20260905191420 65 0 0.0 0.0 0.00 0.00 0.00 58 1019.3
20260905191220 65 0 0.0 0.0 0.00 0.00 0.00 58 1019.3
20260905191019 65 0 0.0 0.0 0.00 0.00 0.00 57 1019.2
20260905190820 65 192 1.0 1.0 0.00 0.00 0.00 57 1019.2
20260905190619 65 194 1.0 2.0 0.00 0.00 0.00 56 1019.3
20260905190420 66 196 1.0 3.0 0.00 0.00 0.00 57 1019.2
20260905190019 66 198 2.0 3.0 0.00 0.00 0.00 55 1019.2
20260905185619 66 206 2.0 3.0 0.00 0.00 0.00 54 1019.2
20260905185420 67 207 2.0 4.0 0.00 0.00 0.00 54 1019.1
20260905185220 67 208 2.0 4.0 0.00 0.00 0.00 54 1019.1
20260905185019 67 208 2.0 4.0 0.00 0.00 0.00 54 1019.1
20260905184820 67 207 2.0 4.0 0.00 0.00 0.00 53 1019.0
20260905184219 67 207 2.0 4.0 0.00 0.00 0.00 53 1018.9
20260905184020 67 208 2.0 4.0 0.00 0.00 0.00 52 1018.9
20260905183819 67 210 2.0 4.0 0.00 0.00 0.00 52 1018.9
20260905183620 67 213 2.0 4.0 0.00 0.00 0.00 52 1018.8
20260905183419 67 216 2.0 4.0 0.00 0.00 0.00 52 1018.9
20260905183220 67 218 1.0 4.0 0.00 0.00 0.00 52 1018.9
20260905183019 67 219 1.0 4.0 0.00 0.00 0.00 52 1018.9
20260905182820 67 222 1.0 4.0 0.00 0.00 0.00 52 1018.9
20260905182420 68 231 1.0 4.0 0.00 0.00 0.00 51 1018.9
20260905181819 69 246 2.0 5.0 0.00 0.00 0.00 50 1018.8
20260905181619 69 246 2.0 5.0 0.00 0.00 0.00 50 1018.7
20260905181420 69 249 3.0 5.0 0.00 0.00 0.00 49 1018.7
20260905181219 69 250 3.0 5.0 0.00 0.00 0.00 49 1018.7
20260905181020 69 254 3.0 6.0 0.00 0.00 0.00 49 1018.7
20260905180819 69 257 3.0 6.0 0.00 0.00 0.00 48 1018.7
20260905180620 69 260 3.0 6.0 0.00 0.00 0.00 49 1018.7
20260905180419 69 261 3.0 6.0 0.00 0.00 0.00 48 1018.6
20260905180219 69 261 3.0 6.0 0.00 0.00 0.00 48 1018.6
20260905180019 69 260 3.0 6.0 0.00 0.00 0.00 48 1018.6
20260905175820 70 260 3.0 6.0 0.00 0.00 0.00 48 1018.5
20260905175619 70 258 3.0 6.0 0.00 0.00 0.00 48 1018.5
20260905175419 70 259 3.0 6.0 0.00 0.00 0.00 47 1018.5
20260905175219 70 260 4.0 6.0 0.00 0.00 0.00 47 1018.5
20260905175019 70 261 4.0 6.0 0.00 0.00 0.00 47 1018.4
20260905174619 71 260 5.0 8.0 0.00 0.00 0.00 46 1018.4
20260905174419 71 261 6.0 10.0 0.00 0.00 0.00 46 1018.4
20260905174219 71 262 6.0 10.0 0.00 0.00 0.00 46 1018.3
20260905174019 71 256 7.0 10.0 0.00 0.00 0.00 46 1018.3
20260905173819 71 253 7.0 10.0 0.00 0.00 0.00 45 1018.2
20260905173619 71 249 7.0 10.0 0.00 0.00 0.00 45 1018.3
20260905173420 71 242 7.0 13.0 0.00 0.00 0.00 45 1018.3
20260905173221 72 237 7.0 13.0 0.00 0.00 0.00 45 1018.2
20260905172819 72 238 8.0 13.0 0.00 0.00 0.00 45 1018.2
20260905172619 72 237 8.0 13.0 0.00 0.00 0.00 45 1018.2
20260905172419 72 245 8.0 13.0 0.00 0.00 0.00 44 1018.2
20260905172219 72 252 8.0 13.0 0.00 0.00 0.00 45 1018.2
20260905172019 72 260 8.0 13.0 0.00 0.00 0.00 44 1018.1
20260905171820 72 265 8.0 13.0 0.00 0.00 0.00 44 1018.1
20260905171619 72 270 9.0 12.0 0.00 0.00 0.00 44 1018.2
20260905171421 72 268 9.0 14.0 0.00 0.00 0.00 44 1018.2
20260905171219 72 267 10.0 15.0 0.00 0.00 0.00 44 1018.2
20260905171019 72 267 10.0 15.0 0.00 0.00 0.00 44 1018.1
20260905170819 73 267 10.0 17.0 0.00 0.00 0.00 44 1018.1
20260905170620 73 269 9.0 17.0 0.00 0.00 0.00 43 1018.2
20260905170419 73 269 9.0 17.0 0.00 0.00 0.00 43 1018.2
20260905170020 73 270 8.0 17.0 0.00 0.00 0.00 43 1018.0
20260905165619 73 270 8.0 17.0 0.00 0.00 0.00 43 1018.0
20260905165420 73 267 9.0 12.0 0.00 0.00 0.00 43 1018.0
20260905165019 73 262 10.0 13.0 0.00 0.00 0.00 43 1018.0
20260905164819 73 262 10.0 15.0 0.00 0.00 0.00 42 1018.0
20260905164420 74 266 11.0 16.0 0.00 0.00 0.00 42 1017.8
20260905164220 74 270 11.0 17.0 0.00 0.00 0.00 42 1017.8
20260905164020 74 270 11.0 17.0 0.00 0.00 0.00 42 1017.8
20260905163819 74 268 11.0 17.0 0.00 0.00 0.00 42 1017.8
20260905163421 74 269 11.0 17.0 0.00 0.00 0.00 42 1017.8
20260905163220 74 268 11.0 19.0 0.00 0.00 0.00 42 1017.8
20260905163020 74 268 11.0 19.0 0.00 0.00 0.00 41 1017.8
20260905162819 74 268 11.0 19.0 0.00 0.00 0.00 41 1017.6
20260905162620 74 269 12.0 19.0 0.00 0.00 0.00 41 1017.6
20260905162419 75 269 12.0 20.0 0.00 0.00 0.00 41 1017.7
20260905162219 75 269 12.0 20.0 0.00 0.00 0.00 41 1017.7
20260905161419 75 264 11.0 20.0 0.00 0.00 0.00 41 1017.6
20260905161219 75 265 10.0 20.0 0.00 0.00 0.00 41 1017.6
20260905161019 75 268 10.0 20.0 0.00 0.00 0.00 40 1017.5
20260905160819 75 270 11.0 18.0 0.00 0.00 0.00 41 1017.5
20260905160619 76 270 11.0 18.0 0.00 0.00 0.00 40 1017.4
20260905160219 76 270 12.0 15.0 0.00 0.00 0.00 40 1017.4
20260905160019 76 270 12.0 17.0 0.00 0.00 0.00 40 1017.4
20260905155819 76 270 12.0 22.0 0.00 0.00 0.00 40 1017.4
20260905155620 76 273 12.0 22.0 0.00 0.00 0.00 40 1017.3
20260905155420 76 273 13.0 22.0 0.00 0.00 0.00 40 1017.3
20260905155019 76 272 12.0 22.0 0.00 0.00 0.00 39 1017.2
20260905154819 76 272 12.0 20.0 0.00 0.00 0.00 39 1017.1
20260905154619 76 271 12.0 20.0 0.00 0.00 0.00 40 1017.2
20260905154219 76 268 10.0 20.0 0.00 0.00 0.00 39 1017.1
20260905153819 76 262 10.0 17.0 0.00 0.00 0.00 40 1017.1
20260905153619 76 261 10.0 17.0 0.00 0.00 0.00 39 1017.1
20260905153419 77 262 10.0 18.0 0.00 0.00 0.00 39 1017.1
20260905153219 77 263 10.0 18.0 0.00 0.00 0.00 39 1017.0
20260905153019 77 263 10.0 18.0 0.00 0.00 0.00 39 1017.0
20260905152819 76 264 11.0 18.0 0.00 0.00 0.00 39 1017.0
20260905152619 76 263 11.0 18.0 0.00 0.00 0.00 39 1017.0
20260905152420 76 263 11.0 18.0 0.00 0.00 0.00 39 1017.0
20260905152219 76 263 12.0 18.0 0.00 0.00 0.00 39 1017.0
20260905152019 76 267 12.0 18.0 0.00 0.00 0.00 39 1017.0
20260905151619 77 270 12.0 18.0 0.00 0.00 0.00 39 1017.1
20260905151419 77 271 12.0 18.0 0.00 0.00 0.00 39 1017.1
20260905151219 77 270 11.0 18.0 0.00 0.00 0.00 38 1017.1
20260905151019 77 269 10.0 18.0 0.00 0.00 0.00 38 1017.0
20260905150819 77 268 10.0 18.0 0.00 0.00 0.00 38 1017.1
20260905150620 77 268 9.0 18.0 0.00 0.00 0.00 38 1017.2
20260905150419 77 267 9.0 18.0 0.00 0.00 0.00 38 1017.2
20260905150219 77 268 9.0 18.0 0.00 0.00 0.00 38 1017.1
20260905150019 77 266 10.0 18.0 0.00 0.00 0.00 38 1017.1
20260905145819 77 261 10.0 18.0 0.00 0.00 0.00 39 1017.1
20260905145419 77 261 10.0 17.0 0.00 0.00 0.00 39 1017.2
20260905145219 77 259 10.0 17.0 0.00 0.00 0.00 39 1017.1
20260905145019 77 262 10.0 17.0 0.00 0.00 0.00 38 1017.1
20260905144819 77 265 11.0 20.0 0.00 0.00 0.00 39 1017.0
20260905144619 77 265 11.0 20.0 0.00 0.00 0.00 38 1017.1
20260905144419 78 267 12.0 20.0 0.00 0.00 0.00 39 1017.2
20260905144219 77 268 12.0 20.0 0.00 0.00 0.00 39 1017.1
20260905144020 77 268 11.0 20.0 0.00 0.00 0.00 38 1017.3
20260905143420 77 265 10.0 19.0 0.00 0.00 0.00 38 1017.1
20260905143219 78 265 9.0 19.0 0.00 0.00 0.00 38 1017.1
20260905143019 78 263 9.0 19.0 0.00 0.00 0.00 38 1017.2
20260905142820 78 260 9.0 19.0 0.00 0.00 0.00 38 1017.1
20260905142619 78 252 9.0 16.0 0.00 0.00 0.00 38 1017.0
20260905142419 78 255 9.0 15.0 0.00 0.00 0.00 39 1017.1
20260905142019 78 252 10.0 15.0 0.00 0.00 0.00 39 1017.0
20260905141819 78 259 11.0 17.0 0.00 0.00 0.00 39 1017.0
20260905141619 78 267 11.0 21.0 0.00 0.00 0.00 39 1017.0
20260905141419 78 269 11.0 24.0 0.00 0.00 0.00 39 1017.1
20260905141219 78 272 11.0 24.0 0.00 0.00 0.00 39 1017.1
20260905141019 78 272 11.0 24.0 0.00 0.00 0.00 39 1017.1
20260905140820 78 270 10.0 24.0 0.00 0.00 0.00 39 1017.2
20260905140619 78 269 10.0 24.0 0.00 0.00 0.00 38 1017.2
20260905140219 78 267 9.0 17.0 0.00 0.00 0.00 39 1017.2
20260905140020 78 265 9.0 17.0 0.00 0.00 0.00 39 1017.2
20260905135819 78 265 9.0 17.0 0.00 0.00 0.00 39 1017.2
20260905135419 78 260 9.0 18.0 0.00 0.00 0.00 40 1017.2
20260905135219 77 256 9.0 18.0 0.00 0.00 0.00 40 1017.2
20260905135019 77 257 9.0 18.0 0.00 0.00 0.00 40 1017.2
20260905134819 77 259 9.0 18.0 0.00 0.00 0.00 40 1017.2
20260905134419 77 257 10.0 16.0 0.00 0.00 0.00 40 1017.2
20260905134219 77 259 10.0 16.0 0.00 0.00 0.00 41 1017.3
20260905134019 77 265 10.0 20.0 0.00 0.00 0.00 42 1017.3
20260905133820 77 267 10.0 20.0 0.00 0.00 0.00 41 1017.3
20260905133620 78 270 10.0 20.0 0.00 0.00 0.00 42 1017.3
20260905133419 78 276 11.0 20.0 0.00 0.00 0.00 41 1017.3
20260905133220 78 277 11.0 20.0 0.00 0.00 0.00 41 1017.3
20260905133019 78 279 11.0 17.0 0.00 0.00 0.00 43 1017.3
20260905132820 77 274 11.0 21.0 0.00 0.00 0.00 43 1017.2
20260905132620 77 271 11.0 21.0 0.00 0.00 0.00 44 1017.2
20260905132419 77 270 11.0 21.0 0.00 0.00 0.00 44 1017.3
20260905132219 77 269 11.0 21.0 0.00 0.00 0.00 44 1017.3
20260905132019 76 266 11.0 21.0 0.00 0.00 0.00 44 1017.2
20260905131819 76 264 11.0 18.0 0.00 0.00 0.00 44 1017.3
20260905131619 76 263 11.0 18.0 0.00 0.00 0.00 44 1017.3
20260905131419 76 261 11.0 18.0 0.00 0.00 0.00 44 1017.4
20260905131218 76 262 11.0 18.0 0.00 0.00 0.00 43 1017.4
20260905131019 77 260 11.0 17.0 0.00 0.00 0.00 43 1017.3
20260905130819 77 263 11.0 19.0 0.00 0.00 0.00 43 1017.3
20260905130619 77 266 11.0 19.0 0.00 0.00 0.00 43 1017.4
20260905130420 77 267 11.0 19.0 0.00 0.00 0.00 43 1017.3
20260905130219 77 269 10.0 19.0 0.00 0.00 0.00 43 1017.4
20260905130019 77 271 10.0 19.0 0.00 0.00 0.00 43 1017.4
20260905125819 77 272 10.0 19.0 0.00 0.00 0.00 43 1017.4
20260905125619 77 271 9.0 18.0 0.00 0.00 0.00 43 1017.4
20260905125419 77 269 9.0 18.0 0.00 0.00 0.00 43 1017.3
20260905125019 76 259 10.0 18.0 0.00 0.00 0.00 45 1017.4
20260905124818 76 259 10.0 17.0 0.00 0.00 0.00 45 1017.4
20260905124619 76 259 11.0 17.0 0.00 0.00 0.00 46 1017.4
20260905124420 76 263 11.0 17.0 0.00 0.00 0.00 45 1017.4
20260905124219 76 265 11.0 17.0 0.00 0.00 0.00 46 1017.4
20260905124019 76 267 11.0 17.0 0.00 0.00 0.00 47 1017.4
20260905123619 76 270 10.0 18.0 0.00 0.00 0.00 49 1017.5
20260905123218 76 271 10.0 18.0 0.00 0.00 0.00 50 1017.6
20260905122819 75 274 9.0 16.0 0.00 0.00 0.00 52 1017.6
20260905122619 75 270 9.0 16.0 0.00 0.00 0.00 53 1017.6
20260905122419 74 270 8.0 16.0 0.00 0.00 0.00 54 1017.6
20260905122219 74 268 8.0 14.0 0.00 0.00 0.00 56 1017.7
20260905122019 74 266 7.0 14.0 0.00 0.00 0.00 55 1017.6
20260905121819 74 264 7.0 15.0 0.00 0.00 0.00 55 1017.7
20260905121619 74 261 7.0 15.0 0.00 0.00 0.00 55 1017.8
20260905121419 74 261 7.0 15.0 0.00 0.00 0.00 55 1017.8
20260905121219 74 262 8.0 15.0 0.00 0.00 0.00 55 1017.9
20260905121019 74 260 8.0 15.0 0.00 0.00 0.00 55 1017.8
20260905120619 74 270 9.0 14.0 0.00 0.00 0.00 53 1017.8
20260905120418 74 271 9.0 18.0 0.00 0.00 0.00 54 1017.8
20260905120219 74 270 9.0 18.0 0.00 0.00 0.00 55 1017.9
20260905120018 73 270 9.0 18.0 0.00 0.00 0.00 54 1017.8
20260905115819 74 264 9.0 18.0 0.00 0.00 0.00 53 1017.8
20260905115618 74 262 9.0 18.0 0.00 0.00 0.00 54 1017.8
20260905115420 74 260 9.0 17.0 0.00 0.00 0.00 53 1017.9
20260905115219 74 257 9.0 17.0 0.00 0.00 0.00 53 1017.9
20260905114819 74 267 10.0 17.0 0.00 0.00 0.00 53 1017.9
20260905114619 74 269 10.0 15.0 0.00 0.00 0.00 54 1018.0
20260905114419 74 270 10.0 18.0 0.00 0.00 0.00 54 1018.0
20260905114219 74 270 10.0 18.0 0.00 0.00 0.00 54 1018.0
20260905114019 74 270 10.0 18.0 0.00 0.00 0.00 54 1017.9
20260905113819 74 266 10.0 18.0 0.00 0.00 0.00 54 1018.0
20260905113620 74 264 10.0 21.0 0.00 0.00 0.00 54 1018.0
20260905113418 74 264 9.0 21.0 0.00 0.00 0.00 54 1018.0
20260905113219 74 265 9.0 21.0 0.00 0.00 0.00 55 1018.1
20260905113020 74 267 9.0 21.0 0.00 0.00 0.00 53 1018.0
20260905112818 74 269 9.0 21.0 0.00 0.00 0.00 54 1018.1
20260905112619 74 273 9.0 18.0 0.00 0.00 0.00 53 1018.1
20260905112219 74 276 10.0 17.0 0.00 0.00 0.00 56 1018.1
20260905111619 74 277 10.0 17.0 0.00 0.00 0.00 55 1018.2
20260905111419 73 278 10.0 15.0 0.00 0.00 0.00 55 1018.1
20260905111219 73 274 10.0 15.0 0.00 0.00 0.00 54 1018.2
20260905111019 73 273 10.0 19.0 0.00 0.00 0.00 55 1018.1
20260905110818 73 272 9.0 19.0 0.00 0.00 0.00 55 1018.2
20260905110619 73 271 9.0 19.0 0.00 0.00 0.00 55 1018.2
20260905110419 73 271 8.0 19.0 0.00 0.00 0.00 54 1018.1
20260905110220 73 272 8.0 19.0 0.00 0.00 0.00 54 1018.2
20260905110019 73 270 7.0 16.0 0.00 0.00 0.00 54 1018.2
20260905105619 73 261 7.0 15.0 0.00 0.00 0.00 55 1018.3
20260905105218 73 251 7.0 15.0 0.00 0.00 0.00 54 1018.4
20260905105019 73 249 7.0 15.0 0.00 0.00 0.00 56 1018.4
20260905104819 72 251 7.0 15.0 0.00 0.00 0.00 56 1018.3
20260905104419 72 261 7.0 15.0 0.00 0.00 0.00 57 1018.3
20260905104219 72 261 7.0 13.0 0.00 0.00 0.00 57 1018.3
20260905104018 72 262 7.0 13.0 0.00 0.00 0.00 57 1018.3
20260905103619 71 259 8.0 14.0 0.00 0.00 0.00 58 1018.3
20260905103420 71 259 8.0 14.0 0.00 0.00 0.00 58 1018.3
20260905103219 71 261 8.0 14.0 0.00 0.00 0.00 59 1018.3
20260905103019 71 262 8.0 15.0 0.00 0.00 0.00 59 1018.3
20260905102819 71 263 8.0 15.0 0.00 0.00 0.00 59 1018.4
20260905102618 71 266 8.0 15.0 0.00 0.00 0.00 60 1018.4
20260905102419 71 267 8.0 15.0 0.00 0.00 0.00 60 1018.3
20260905102219 71 267 8.0 15.0 0.00 0.00 0.00 58 1018.3
20260905102019 71 264 8.0 13.0 0.00 0.00 0.00 58 1018.4
20260905101619 70 264 8.0 14.0 0.00 0.00 0.00 60 1018.3
20260905101419 70 261 7.0 14.0 0.00 0.00 0.00 61 1018.4
20260905101218 70 260 7.0 14.0 0.00 0.00 0.00 61 1018.3
20260905101019 70 258 7.0 14.0 0.00 0.00 0.00 61 1018.3
20260905100818 70 256 7.0 13.0 0.00 0.00 0.00 60 1018.3
20260905100619 70 256 7.0 13.0 0.00 0.00 0.00 61 1018.4
20260905100019 70 258 7.0 13.0 0.00 0.00 0.00 64 1018.4
20260905095819 69 258 8.0 13.0 0.00 0.00 0.00 64 1018.4
20260905095619 69 262 8.0 13.0 0.00 0.00 0.00 64 1018.4
20260905095419 69 268 8.0 13.0 0.00 0.00 0.00 64 1018.3
20260905095218 69 270 8.0 14.0 0.00 0.00 0.00 65 1018.4
20260905094819 69 271 7.0 14.0 0.00 0.00 0.00 64 1018.4
20260905094619 69 268 7.0 14.0 0.00 0.00 0.00 64 1018.4
20260905094419 68 264 7.0 14.0 0.00 0.00 0.00 64 1018.4
20260905094219 68 261 7.0 13.0 0.00 0.00 0.00 65 1018.4
20260905094019 68 266 7.0 12.0 0.00 0.00 0.00 66 1018.5
20260905093819 68 266 6.0 12.0 0.00 0.00 0.00 65 1018.5
20260905093219 69 266 6.0 12.0 0.00 0.00 0.00 64 1018.5
20260905092818 69 265 7.0 12.0 0.00 0.00 0.00 65 1018.5
20260905092418 68 269 8.0 11.0 0.00 0.00 0.00 67 1018.7
20260905092219 68 270 9.0 12.0 0.00 0.00 0.00 67 1018.8
20260905091819 67 271 9.0 14.0 0.00 0.00 0.00 68 1018.8
20260905091619 67 270 8.0 14.0 0.00 0.00 0.00 68 1018.8
20260905091419 67 270 8.0 14.0 0.00 0.00 0.00 68 1018.8
20260905091219 67 269 7.0 14.0 0.00 0.00 0.00 68 1018.8
20260905091019 67 270 7.0 13.0 0.00 0.00 0.00 67 1018.9
20260905090819 67 266 6.0 13.0 0.00 0.00 0.00 68 1018.9
20260905090619 67 266 6.0 13.0 0.00 0.00 0.00 69 1019.0
20260905090218 66 263 6.0 12.0 0.00 0.00 0.00 70 1019.0
20260905090019 66 261 6.0 11.0 0.00 0.00 0.00 70 1019.1
20260905085618 66 265 6.0 11.0 0.00 0.00 0.00 71 1019.2
20260905085419 65 264 6.0 11.0 0.00 0.00 0.00 72 1019.2
20260905085219 65 265 6.0 10.0 0.00 0.00 0.00 72 1019.3
20260905085019 65 262 5.0 10.0 0.00 0.00 0.00 73 1019.3
20260905084819 65 262 5.0 10.0 0.00 0.00 0.00 73 1019.3
20260905084619 65 263 5.0 10.0 0.00 0.00 0.00 73 1019.2
20260905084419 64 265 5.0 10.0 0.00 0.00 0.00 73 1019.2
20260905084218 64 267 5.0 9.0 0.00 0.00 0.00 73 1019.1
20260905084019 64 269 5.0 9.0 0.00 0.00 0.00 74 1019.1
20260905083819 64 265 5.0 13.0 0.00 0.00 0.00 74 1019.1
20260905083619 64 262 5.0 13.0 0.00 0.00 0.00 74 1019.1
20260905083418 64 261 5.0 13.0 0.00 0.00 0.00 74 1019.1
20260905083219 64 260 5.0 13.0 0.00 0.00 0.00 74 1019.0
20260905082819 64 261 6.0 12.0 0.00 0.00 0.00 74 1018.9
20260905082618 64 261 5.0 12.0 0.00 0.00 0.00 74 1018.9
20260905082219 64 253 5.0 12.0 0.00 0.00 0.00 74 1019.0
20260905081819 64 240 4.0 9.0 0.00 0.00 0.00 74 1019.1
20260905081619 64 232 4.0 9.0 0.00 0.00 0.00 75 1019.1
20260905081418 64 229 4.0 9.0 0.00 0.00 0.00 76 1019.0
20260905081219 64 229 5.0 9.0 0.00 0.00 0.00 76 1018.9
20260905081019 64 227 5.0 8.0 0.00 0.00 0.00 77 1018.7
20260905080818 64 230 6.0 8.0 0.00 0.00 0.00 77 1018.7
20260905080619 64 233 6.0 11.0 0.00 0.00 0.00 78 1018.6
20260905080419 64 236 6.0 11.0 0.00 0.00 0.00 77 1018.5
20260905080218 64 240 6.0 11.0 0.00 0.00 0.00 77 1018.3
20260905080019 64 248 5.0 12.0 0.00 0.00 0.00 77 1018.2
20260905075819 64 251 5.0 12.0 0.00 0.00 0.00 77 1018.5
20260905075419 64 265 3.0 12.0 0.00 0.00 0.00 77 1018.8
20260905075219 64 270 2.0 12.0 0.00 0.00 0.00 77 1018.5
20260905075019 64 272 2.0 8.0 0.00 0.00 0.00 78 1018.3
20260905074818 64 274 2.0 5.0 0.00 0.00 0.00 78 1018.1
20260905074619 64 273 2.0 5.0 0.00 0.00 0.00 78 1017.9
20260905074419 64 261 2.0 4.0 0.00 0.00 0.00 78 1017.8
20260905074219 64 251 3.0 6.0 0.00 0.00 0.00 78 1017.7
20260905073819 64 219 3.0 8.0 0.00 0.00 0.00 78 1017.4
20260905073619 63 217 3.0 8.0 0.00 0.00 0.00 78 1017.4
20260905073419 63 211 3.0 8.0 0.00 0.00 0.00 78 1017.3
20260905073219 63 207 2.0 8.0 0.00 0.00 0.00 78 1017.3
20260905073018 64 202 2.0 8.0 0.00 0.00 0.00 78 1017.5
20260905072819 64 218 2.0 7.0 0.00 0.00 0.00 79 1017.6
20260905072419 64 233 3.0 7.0 0.00 0.00 0.00 79 1017.2
20260905072218 64 237 3.0 8.0 0.00 0.00 0.00 78 1017.2
20260905072019 64 249 3.0 9.0 0.00 0.00 0.00 78 1017.4
20260905071418 64 301 3.0 9.0 0.00 0.00 0.00 78 1017.6
20260905071219 64 323 3.0 9.0 0.00 0.00 0.00 78 1017.8
20260905071019 64 334 3.0 6.0 0.00 0.00 0.00 79 1017.9
20260905070819 64 333 3.0 6.0 0.00 0.00 0.00 79 1017.8
20260905070618 64 335 3.0 8.0 0.00 0.00 0.00 79 1017.8
20260905070419 64 337 3.0 8.0 0.00 0.00 0.00 80 1017.8
20260905070019 64 338 3.0 8.0 0.00 0.00 0.00 80 1017.9
20260905065819 64 339 3.0 8.0 0.00 0.00 0.00 81 1017.9
20260905065619 64 340 3.0 8.0 0.00 0.00 0.00 81 1017.9
20260905065419 64 332 3.0 8.0 0.00 0.00 0.00 81 1017.8
20260905065219 64 324 3.0 8.0 0.00 0.00 0.00 81 1017.8
20260905064818 64 296 2.0 7.0 0.00 0.00 0.00 81 1018.0
20260905064619 64 278 1.0 7.0 0.00 0.00 0.00 81 1018.0
20260905064419 64 257 1.0 7.0 0.00 0.00 0.00 81 1018.0
20260905064219 64 242 1.0 7.0 0.00 0.00 0.00 81 1018.2
20260905064019 64 227 1.0 5.0 0.00 0.00 0.00 81 1018.2
20260905063219 64 221 1.0 4.0 0.00 0.00 0.00 80 1018.0
20260905063019 64 221 1.0 4.0 0.00 0.00 0.00 80 1018.0
20260905062819 64 235 1.0 4.0 0.00 0.00 0.00 80 1017.9
20260905062618 64 285 1.0 4.0 0.00 0.00 0.00 80 1017.8
20260905062419 64 301 2.0 3.0 0.00 0.00 0.00 80 1017.7
20260905062218 64 302 2.0 7.0 0.00 0.00 0.00 80 1017.6
20260905062019 64 303 2.0 7.0 0.00 0.00 0.00 80 1017.5
20260905061818 64 314 1.0 7.0 0.00 0.00 0.00 80 1017.5
20260905061019 64 107 1.0 4.0 0.00 0.00 0.00 80 1017.2
20260905060819 64 90 2.0 4.0 0.00 0.00 0.00 80 1017.1
20260905060618 64 345 2.0 4.0 0.00 0.00 0.00 80 1017.0
20260905060419 64 329 2.0 4.0 0.00 0.00 0.00 80 1017.1
20260905060218 64 343 2.0 7.0 0.00 0.00 0.00 80 1017.2
20260905060019 64 358 2.0 7.0 0.00 0.00 0.00 80 1017.2
20260905055818 64 12 2.0 7.0 0.00 0.00 0.00 80 1017.2
20260905055618 64 23 2.0 7.0 0.00 0.00 0.00 80 1017.1
20260905055418 64 30 2.0 7.0 0.00 0.00 0.00 80 1017.0
20260905055219 64 35 2.0 5.0 0.00 0.00 0.00 80 1016.9
20260905055018 64 29 2.0 5.0 0.00 0.00 0.00 79 1016.8
20260905054619 64 38 3.0 5.0 0.00 0.00 0.00 80 1016.8
20260905054019 64 40 3.0 6.0 0.00 0.00 0.00 79 1016.9
20260905053818 64 32 3.0 7.0 0.00 0.00 0.00 79 1016.9
20260905053418 64 359 4.0 7.0 0.00 0.00 0.00 79 1016.9
20260905053218 64 342 4.0 8.0 0.00 0.00 0.00 78 1016.9
20260905052419 64 331 4.0 8.0 0.00 0.00 0.00 77 1017.2
20260905052218 64 331 4.0 9.0 0.00 0.00 0.00 77 1017.0
20260905052019 64 321 4.0 9.0 0.00 0.00 0.00 77 1017.0
20260905051818 65 314 4.0 9.0 0.00 0.00 0.00 76 1017.0
20260905051618 65 309 4.0 10.0 0.00 0.00 0.00 76 1017.0
20260905051419 65 307 4.0 10.0 0.00 0.00 0.00 75 1017.1
20260905051218 65 308 4.0 10.0 0.00 0.00 0.00 74 1016.9
20260905051018 65 315 4.0 10.0 0.00 0.00 0.00 73 1016.7
20260905050819 65 319 4.0 10.0 0.00 0.00 0.00 73 1016.6
20260905050618 65 329 4.0 8.0 0.00 0.00 0.00 72 1016.5
20260905050418 65 336 5.0 8.0 0.00 0.00 0.00 72 1016.4
20260905050218 65 340 6.0 9.0 0.00 0.00 0.00 71 1016.4
20260905050019 66 344 6.0 9.0 0.00 0.00 0.00 71 1016.4
20260905045818 66 345 7.0 9.0 0.00 0.00 0.00 71 1016.2
20260905045418 66 320 7.0 13.0 0.00 0.00 0.00 70 1015.9
20260905045218 66 314 7.0 13.0 0.00 0.00 0.00 69 1015.8
20260905045019 66 309 8.0 13.0 0.00 0.00 0.00 68 1016.1
20260905044819 66 313 8.0 13.0 0.00 0.00 0.00 68 1016.7
20260905044618 66 319 8.0 13.0 0.00 0.00 0.00 67 1016.7
20260905044418 66 327 9.0 11.0 0.00 0.00 0.00 66 1015.9
20260905044018 67 327 9.0 18.0 0.00 0.00 0.00 65 1015.4
20260905043818 67 321 10.0 18.0 0.00 0.00 0.00 64 1015.5
20260905043618 67 318 10.0 18.0 0.00 0.00 0.00 63 1015.4
20260905043418 68 316 10.0 18.0 0.00 0.00 0.00 63 1015.6
20260905043218 68 313 10.0 18.0 0.00 0.00 0.00 62 1015.7
20260905043018 68 312 9.0 17.0 0.00 0.00 0.00 62 1015.9
20260905042618 68 304 9.0 15.0 0.00 0.00 0.00 60 1015.8
20260905042418 68 299 8.0 15.0 0.00 0.00 0.00 60 1015.7
20260905042218 68 296 8.0 15.0 0.00 0.00 0.00 60 1015.4
20260905042018 68 299 7.0 14.0 0.00 0.00 0.00 60 1015.4
20260905041618 68 303 5.0 14.0 0.00 0.00 0.00 61 1015.1
20260905041418 68 304 4.0 14.0 0.00 0.00 0.00 62 1015.0
20260905041218 68 305 3.0 14.0 0.00 0.00 0.00 62 1015.0
20260905041018 68 302 3.0 12.0 0.00 0.00 0.00 62 1015.1
20260905040818 68 302 3.0 12.0 0.00 0.00 0.00 63 1015.1
20260905040618 68 316 3.0 8.0 0.00 0.00 0.00 64 1014.9
20260905040418 68 318 4.0 6.0 0.00 0.00 0.00 64 1014.9
20260905040218 68 309 5.0 7.0 0.00 0.00 0.00 64 1014.8
20260905040019 68 301 6.0 9.0 0.00 0.00 0.00 64 1014.7
20260905035818 68 298 6.0 10.0 0.00 0.00 0.00 64 1014.5
20260905035618 68 297 6.0 12.0 0.00 0.00 0.00 64 1014.7
20260905035418 68 298 6.0 12.0 0.00 0.00 0.00 63 1015.0
20260905035218 68 302 6.0 12.0 0.00 0.00 0.00 63 1014.9
20260905035018 68 308 6.0 12.0 0.00 0.00 0.00 62 1014.6
20260905034818 68 320 6.0 12.0 0.00 0.00 0.00 62 1014.3
20260905034418 68 334 6.0 12.0 0.00 0.00 0.00 63 1014.0
20260905034218 68 338 5.0 12.0 0.00 0.00 0.00 63 1013.8
20260905034018 68 341 5.0 12.0 0.00 0.00 0.00 64 1013.7
20260905033818 68 340 4.0 10.0 0.00 0.00 0.00 64 1013.7
20260905033618 68 338 4.0 9.0 0.00 0.00 0.00 65 1013.7
20260905033418 68 335 3.0 9.0 0.00 0.00 0.00 65 1013.7
20260905033218 68 333 3.0 9.0 0.00 0.00 0.00 66 1013.7
20260905033018 67 332 2.0 9.0 0.00 0.00 0.00 66 1013.7
20260905032818 67 331 2.0 9.0 0.00 0.00 0.00 66 1013.7
20260905032618 67 332 2.0 8.0 0.00 0.00 0.00 66 1013.6
20260905032418 68 328 2.0 8.0 0.00 0.00 0.00 66 1013.6
20260905032018 68 316 3.0 6.0 0.00 0.00 0.00 64 1013.5
20260905031818 69 316 4.0 6.0 0.00 0.00 0.00 64 1013.6
20260905031618 69 318 4.0 7.0 0.00 0.00 0.00 63 1013.6
20260905031418 69 320 5.0 7.0 0.00 0.00 0.00 63 1013.6
20260905031218 69 325 6.0 8.0 0.00 0.00 0.00 63 1013.6
20260905031018 69 330 6.0 9.0 0.00 0.00 0.00 63 1013.6
20260905030818 69 330 7.0 11.0 0.00 0.00 0.00 62 1013.5
20260905030617 69 330 7.0 13.0 0.00 0.00 0.00 62 1013.5
20260905030218 70 326 8.0 13.0 0.00 0.00 0.00 62 1013.2
20260905030018 70 323 8.0 13.0 0.00 0.00 0.00 61 1013.3
20260905025818 70 319 8.0 13.0 0.00 0.00 0.00 61 1013.4
20260905025618 70 315 8.0 16.0 0.00 0.00 0.00 61 1013.4
20260905025419 70 312 8.0 16.0 0.00 0.00 0.00 61 1013.4
20260905025218 70 309 9.0 16.0 0.00 0.00 0.00 61 1013.4
20260905024818 70 305 9.0 16.0 0.00 0.00 0.00 61 1013.4
20260905024218 71 304 10.0 16.0 0.00 0.00 0.00 61 1013.4
20260905023818 71 304 11.0 16.0 0.00 0.00 0.00 61 1013.3
20260905023618 71 304 11.0 16.0 0.00 0.00 0.00 61 1013.2
20260905023218 71 304 11.0 16.0 0.00 0.00 0.00 61 1013.0
20260905023018 71 303 11.0 18.0 0.00 0.00 0.00 61 1013.0
20260905022818 71 304 12.0 18.0 0.00 0.00 0.00 62 1013.0
20260905022618 71 305 12.0 18.0 0.00 0.00 0.00 62 1012.9
20260905022218 72 306 13.0 20.0 0.00 0.00 0.00 62 1012.8
20260905021818 72 305 13.0 21.0 0.00 0.00 0.00 62 1012.7
20260905021618 72 305 13.0 21.0 0.00 0.00 0.00 62 1012.7
20260905021417 72 303 13.0 21.0 0.00 0.00 0.00 62 1012.7
20260905021218 72 304 12.0 23.0 0.00 0.00 0.00 62 1012.9
20260905021018 72 305 11.0 23.0 0.00 0.00 0.00 62 1012.9
20260905020818 73 303 9.0 23.0 0.00 0.00 0.00 62 1012.8
20260905020618 73 297 7.0 23.0 0.00 0.00 0.00 62 1012.8
20260905020418 73 296 6.0 23.0 0.00 0.00 0.00 63 1012.8
20260905020218 73 290 4.0 23.0 0.00 0.00 0.00 63 1012.8
20260905020018 72 277 4.0 21.0 0.00 0.00 0.00 63 1012.7
20260905015817 72 259 3.0 21.0 0.00 0.00 0.00 64 1012.6
20260905015418 72 208 3.0 7.0 0.00 0.00 0.00 65 1012.3
20260905015218 72 191 3.0 7.0 0.00 0.00 0.00 65 1012.1
20260905015018 72 187 3.0 7.0 0.00 0.00 0.00 65 1012.0
20260905014818 72 185 3.0 7.0 0.00 0.00 0.00 65 1011.9
20260905014618 72 183 2.0 7.0 0.00 0.00 0.00 65 1011.8
20260905014218 72 185 2.0 5.0 0.00 0.00 0.00 66 1011.9
20260905014018 72 183 1.0 5.0 0.00 0.00 0.00 66 1011.8
20260905013818 72 183 1.0 4.0 0.00 0.00 0.00 66 1011.8
20260905013618 72 181 1.0 4.0 0.00 0.00 0.00 65 1011.7
20260905013418 72 177 1.0 4.0 0.00 0.00 0.00 65 1011.6
20260905013018 72 201 2.0 5.0 0.00 0.00 0.00 65 1011.6
20260905012817 72 200 2.0 5.0 0.00 0.00 0.00 64 1011.6
20260905012618 72 204 3.0 6.0 0.00 0.00 0.00 64 1011.6
20260905012218 72 201 3.0 6.0 0.00 0.00 0.00 64 1011.6
20260905011818 72 198 3.0 6.0 0.00 0.00 0.00 64 1011.7
20260905011618 72 193 3.0 6.0 0.00 0.00 0.00 63 1011.7
20260905011417 72 191 3.0 6.0 0.00 0.00 0.00 63 1011.6
20260905011218 72 190 3.0 6.0 0.00 0.00 0.00 62 1011.6
20260905011018 72 189 3.0 6.0 0.00 0.00 0.00 62 1011.5
20260905010818 72 190 3.0 6.0 0.00 0.00 0.00 63 1011.5
20260905010618 72 189 3.0 6.0 0.00 0.00 0.00 63 1011.5
20260905010418 72 188 3.0 6.0 0.00 0.00 0.00 62 1011.5
20260905010218 72 186 4.0 6.0 0.00 0.00 0.00 63 1011.4
20260905010017 72 188 4.0 6.0 0.00 0.00 0.00 63 1011.3
20260905005818 72 189 4.0 6.0 0.00 0.00 0.00 63 1011.3
20260905005618 72 190 4.0 6.0 0.00 0.00 0.00 63 1011.2
20260905005417 72 192 3.0 8.0 0.00 0.00 0.00 63 1011.2
20260905005018 72 195 3.0 8.0 0.00 0.00 0.00 64 1011.2
20260905004818 72 196 3.0 8.0 0.00 0.00 0.00 64 1011.2
20260905004618 71 196 3.0 8.0 0.00 0.00 0.00 64 1011.2
20260905004417 71 196 3.0 6.0 0.00 0.00 0.00 64 1011.1
20260905004218 71 197 3.0 6.0 0.00 0.00 0.00 64 1011.1
20260905004018 71 197 3.0 6.0 0.00 0.00 0.00 64 1011.1
20260905003618 71 198 3.0 6.0 0.00 0.00 0.00 64 1011.0
20260905003218 71 199 3.0 6.0 0.00 0.00 0.00 64 1011.1
20260905003017 71 203 2.0 6.0 0.00 0.00 0.00 64 1011.0
20260905002818 71 205 2.0 6.0 0.00 0.00 0.00 65 1011.0
20260905002618 71 208 2.0 6.0 0.00 0.00 0.00 65 1010.9
20260905002418 71 210 2.0 5.0 0.00 0.00 0.00 65 1011.0
20260905002018 71 211 2.0 4.0 0.00 0.00 0.00 65 1010.9
20260905001818 71 208 1.0 4.0 0.00 0.00 0.00 66 1010.9
20260905001618 71 208 1.0 4.0 0.00 0.00 0.00 66 1010.9
20260905001218 71 214 2.0 3.0 0.00 0.00 0.00 65 1010.8
20260905001018 71 213 2.0 3.0 0.00 0.00 0.00 65 1010.8
20260905000818 71 212 2.0 3.0 0.00 0.00 0.00 65 1010.8
20260905000219 71 203 1.0 3.0 0.00 0.00 0.00 66 1010.7
20260905000019 71 202 1.0 3.0 0.00 0.00 0.00 65 1010.6
20260904235818 71 204 1.0 3.0 0.00 0.00 0.00 64 1010.6
20260904235618 71 204 0.0 3.0 0.00 0.00 0.00 65 1010.6
20260904235418 71 210 0.0 3.0 0.00 0.00 0.00 65 1010.6
20260904235218 71 216 0.0 3.0 0.00 0.00 0.00 65 1010.6
20260904235017 71 219 1.0 3.0 0.00 0.00 0.00 64 1010.6
20260904234618 72 221 1.0 3.0 0.00 0.00 0.00 64 1010.6
20260904234418 72 226 2.0 3.0 0.00 0.00 0.00 63 1010.6
20260904234217 72 223 2.0 3.0 0.00 0.00 0.00 63 1010.6
20260904234018 72 218 2.0 4.0 0.00 0.00 0.00 62 1010.6
20260904233819 72 222 2.0 4.0 0.00 0.00 0.00 62 1010.6
20260904233418 73 219 3.0 4.0 0.00 0.00 0.00 62 1010.6
20260904233018 73 218 3.0 5.0 0.00 0.00 0.00 62 1010.6
20260904232818 73 213 3.0 6.0 0.00 0.00 0.00 61 1010.6
20260904232618 73 211 3.0 6.0 0.00 0.00 0.00 61 1010.6
20260904232418 73 211 3.0 6.0 0.00 0.00 0.00 61 1010.6
20260904232217 73 210 2.0 6.0 0.00 0.00 0.00 62 1010.6
20260904232018 73 211 2.0 6.0 0.00 0.00 0.00 62 1010.6
20260904231418 73 215 3.0 5.0 0.00 0.00 0.00 62 1010.6
20260904231217 72 212 3.0 5.0 0.00 0.00 0.00 62 1010.6
20260904230818 72 207 3.0 5.0 0.00 0.00 0.00 63 1010.6
20260904230617 72 205 2.0 5.0 0.00 0.00 0.00 64 1010.6
20260904230418 72 205 2.0 5.0 0.00 0.00 0.00 64 1010.6
20260904230218 72 206 2.0 5.0 0.00 0.00 0.00 65 1010.5
20260904230017 72 202 2.0 6.0 0.00 0.00 0.00 65 1010.6
20260904225818 72 202 2.0 6.0 0.00 0.00 0.00 64 1010.5
20260904225618 72 200 1.0 6.0 0.00 0.00 0.00 65 1010.6
20260904225418 71 200 1.0 6.0 0.00 0.00 0.00 65 1010.6
20260904225218 71 200 1.0 6.0 0.00 0.00 0.00 66 1010.6
20260904225018 71 209 1.0 5.0 0.00 0.00 0.00 65 1010.6
20260904224817 71 208 0.0 5.0 0.00 0.00 0.00 66 1010.6
20260904224617 71 217 0.0 2.0 0.00 0.00 0.00 65 1010.6
20260904224418 72 214 0.0 2.0 0.00 0.00 0.00 65 1010.6
20260904224217 72 214 0.0 2.0 0.00 0.00 0.00 65 1010.6
20260904223818 72 222 0.0 2.0 0.00 0.00 0.00 63 1010.5
20260904223417 72 229 1.0 2.0 0.00 0.00 0.00 63 1010.6
20260904223218 72 229 1.0 2.0 0.00 0.00 0.00 63 1010.6
20260904222617 73 221 2.0 5.0 0.00 0.00 0.00 63 1010.5
20260904222417 73 218 2.0 5.0 0.00 0.00 0.00 62 1010.6
20260904222218 73 215 2.0 5.0 0.00 0.00 0.00 63 1010.5
20260904221818 73 210 1.0 5.0 0.00 0.00 0.00 63 1010.5
20260904221618 72 206 1.0 4.0 0.00 0.00 0.00 63 1010.5
20260904221418 72 203 1.0 4.0 0.00 0.00 0.00 64 1010.5
20260904221217 72 199 1.0 3.0 0.00 0.00 0.00 64 1010.5
20260904221018 72 185 1.0 3.0 0.00 0.00 0.00 63 1010.6
20260904220618 73 179 2.0 5.0 0.00 0.00 0.00 63 1010.5
20260904220417 73 189 3.0 5.0 0.00 0.00 0.00 62 1010.5
20260904220217 73 191 3.0 6.0 0.00 0.00 0.00 62 1010.5
20260904220019 73 193 3.0 7.0 0.00 0.00 0.00 62 1010.5
20260904215817 73 197 3.0 7.0 0.00 0.00 0.00 62 1010.5
20260904215618 73 199 3.0 7.0 0.00 0.00 0.00 62 1010.5
20260904215418 73 198 3.0 7.0 0.00 0.00 0.00 62 1010.6
20260904215217 73 197 3.0 7.0 0.00 0.00 0.00 62 1010.5
20260904215018 73 196 3.0 7.0 0.00 0.00 0.00 62 1010.5
20260904214818 73 192 4.0 6.0 0.00 0.00 0.00 62 1010.5
20260904214618 73 186 4.0 7.0 0.00 0.00 0.00 62 1010.5
20260904214418 73 184 4.0 7.0 0.00 0.00 0.00 62 1010.5
20260904214217 72 184 3.0 7.0 0.00 0.00 0.00 62 1010.4
20260904214017 72 182 3.0 7.0 0.00 0.00 0.00 63 1010.4
20260904213818 72 183 2.0 7.0 0.00 0.00 0.00 63 1010.4
20260904213417 71 183 1.0 7.0 0.00 0.00 0.00 64 1010.4
20260904213218 71 181 1.0 7.0 0.00 0.00 0.00 64 1010.4
20260904212617 71 192 2.0 4.0 0.00 0.00 0.00 64 1010.5
20260904212417 71 192 2.0 4.0 0.00 0.00 0.00 64 1010.5
20260904212218 71 187 1.0 4.0 0.00 0.00 0.00 64 1010.5
20260904212017 71 184 1.0 4.0 0.00 0.00 0.00 63 1010.5
20260904211817 71 183 1.0 4.0 0.00 0.00 0.00 63 1010.5
20260904211618 71 178 0.0 4.0 0.00 0.00 0.00 63 1010.5
20260904211417 71 173 0.0 4.0 0.00 0.00 0.00 64 1010.5
20260904211218 71 183 0.0 4.0 0.00 0.00 0.00 64 1010.5
20260904211018 71 217 1.0 3.0 0.00 0.00 0.00 64 1010.6
20260904210817 71 217 1.0 2.0 0.00 0.00 0.00 64 1010.6
20260904210618 71 189 1.0 3.0 0.00 0.00 0.00 63 1010.7
20260904210418 71 190 2.0 3.0 0.00 0.00 0.00 63 1010.7
20260904210217 72 193 2.0 3.0 0.00 0.00 0.00 63 1010.7
20260904210018 72 183 2.0 3.0 0.00 0.00 0.00 62 1010.7
20260904205817 72 175 3.0 4.0 0.00 0.00 0.00 62 1010.7
20260904205218 73 165 3.0 5.0 0.00 0.00 0.00 61 1010.7
20260904205017 73 172 3.0 6.0 0.00 0.00 0.00 60 1010.7
20260904204817 73 186 3.0 6.0 0.00 0.00 0.00 60 1010.7
20260904204618 73 196 3.0 6.0 0.00 0.00 0.00 59 1010.8
20260904204417 73 203 3.0 6.0 0.00 0.00 0.00 59 1010.8
20260904204217 73 213 3.0 6.0 0.00 0.00 0.00 59 1010.8
20260904204018 73 219 3.0 6.0 0.00 0.00 0.00 59 1010.9
20260904203817 73 210 3.0 7.0 0.00 0.00 0.00 59 1010.9
20260904203018 74 205 2.0 7.0 0.00 0.00 0.00 59 1010.8
20260904202817 74 205 2.0 6.0 0.00 0.00 0.00 59 1010.8
20260904202418 74 202 2.0 6.0 0.00 0.00 0.00 59 1010.8
20260904202217 74 200 2.0 6.0 0.00 0.00 0.00 58 1010.8
20260904202018 74 203 3.0 6.0 0.00 0.00 0.00 57 1010.8
20260904201817 74 206 3.0 6.0 0.00 0.00 0.00 57 1010.8
20260904201617 75 212 3.0 6.0 0.00 0.00 0.00 57 1010.8
20260904201418 75 204 3.0 6.0 0.00 0.00 0.00 56 1010.8
20260904201017 75 204 3.0 6.0 0.00 0.00 0.00 56 1010.8
20260904200818 75 206 3.0 6.0 0.00 0.00 0.00 55 1010.8
20260904200617 75 209 3.0 7.0 0.00 0.00 0.00 55 1010.8
20260904200418 76 214 4.0 7.0 0.00 0.00 0.00 55 1010.8
20260904200017 76 206 4.0 7.0 0.00 0.00 0.00 54 1010.9
20260904195618 76 194 4.0 9.0 0.00 0.00 0.00 54 1010.9
20260904195417 76 191 4.0 9.0 0.00 0.00 0.00 54 1010.9
20260904195217 76 192 4.0 9.0 0.00 0.00 0.00 54 1010.9
20260904195018 77 194 4.0 9.0 0.00 0.00 0.00 53 1010.9
20260904194817 77 197 4.0 9.0 0.00 0.00 0.00 53 1010.9
20260904194418 77 194 4.0 9.0 0.00 0.00 0.00 53 1010.9
20260904194217 77 192 4.0 9.0 0.00 0.00 0.00 52 1011.0
20260904193817 77 183 4.0 9.0 0.00 0.00 0.00 52 1010.9
20260904193417 77 183 4.0 7.0 0.00 0.00 0.00 53 1011.0
20260904193218 77 182 4.0 7.0 0.00 0.00 0.00 53 1010.9
20260904193018 77 184 4.0 7.0 0.00 0.00 0.00 52 1010.9
20260904192817 77 185 4.0 7.0 0.00 0.00 0.00 53 1011.0
20260904192618 77 186 4.0 7.0 0.00 0.00 0.00 53 1010.9
20260904192217 77 185 4.0 8.0 0.00 0.00 0.00 53 1010.9
20260904192018 77 182 4.0 8.0 0.00 0.00 0.00 53 1010.9